FW2073 Weather Reports


time (UTC)temp
F
wind
direction
speed
knots
gust
knots
rain 1hr
in
rain 24hr
in
rain mn
in
humidity
%
barometer
mb
20260506201531 45 83 0.0 0.0 0.02 1.01 0.64 100 1005.2
20260506200021 45 255 0.0 0.0 0.01 0.99 0.62 99 1005.1
20260506194525 45 133 0.0 0.0 0.01 0.99 0.62 100 1005.1
20260506193018 46 257 0.0 0.0 0.03 0.99 0.62 100 1005.2
20260506191517 46 223 0.0 0.0 0.05 0.99 0.62 100 1005.2
20260506190016 45 141 0.0 0.0 0.06 0.98 0.61 100 1005.5
20260506184513 44 122 0.0 0.9 0.10 0.98 0.61 100 1005.6
20260506183021 44 93 0.0 0.0 0.11 0.96 0.59 100 1005.5
20260506181511 45 248 0.0 0.0 0.11 0.94 0.56 100 1005.6
20260506180011 46 271 0.0 0.0 0.12 0.92 0.55 100 1005.7
20260506174508 47 259 0.0 0.0 0.14 0.88 0.51 100 1006.0
20260506173002 48 136 0.0 0.0 0.14 0.85 0.48 100 1006.1
20260506171502 49 148 0.0 0.0 0.15 0.83 0.46 100 1005.7
20260506170001 48 117 0.0 0.0 0.14 0.80 0.43 100 1005.8
20260506164601 48 107 0.0 0.0 0.10 0.74 0.37 100 1005.4
20260506163110 48 314 0.0 0.0 0.10 0.71 0.34 100 1005.6
20260506161555 48 240 0.0 0.0 0.09 0.68 0.31 100 1005.7
20260506160054 48 323 0.0 0.0 0.09 0.66 0.28 100 1005.8
20260506154522 48 150 0.0 0.0 0.08 0.63 0.26 100 1006.2
20260506153020 48 274 0.0 0.0 0.08 0.61 0.24 100 1006.4
20260506151518 48 129 0.0 0.0 0.07 0.59 0.22 100 1006.7
20260506150017 48 119 0.0 0.0 0.07 0.56 0.20 100 1006.8
20260506144516 48 120 0.0 0.0 0.07 0.55 0.18 100 1007.0
20260506143026 48 281 0.0 0.0 0.07 0.53 0.16 100 1006.9
20260506141512 47 299 0.0 0.0 0.08 0.52 0.15 100 1007.0
20260506140012 47 133 0.0 0.0 0.09 0.50 0.13 100 1007.5
20260506134511 47 131 0.0 0.0 0.09 0.48 0.11 100 1007.3
20260506133007 48 150 0.0 0.0 0.08 0.46 0.09 100 1007.1
20260506131503 49 291 0.0 0.0 0.07 0.44 0.07 100 1007.2
20260506130005 49 302 0.0 0.0 0.04 0.41 0.04 100 1007.3
20260506124600 49 101 0.0 0.0 0.02 0.39 0.02 100 1007.6
20260506123100 49 101 0.0 0.0 0.01 0.38 0.01 100 1007.7
20260506121558 49 103 0.0 0.0 0.00 0.37 0.00 100 1007.7
20260506120057 50 127 0.0 0.0 0.00 0.37 0.00 100 1007.4
20260506114556 50 127 0.0 0.0 0.00 0.37 0.00 100 1007.4
20260506113054 49 80 0.0 0.0 0.00 0.37 0.00 100 1007.5
20260506111551 49 223 0.0 0.0 0.00 0.37 0.00 100 1007.5
20260506110050 50 136 0.0 0.0 0.00 0.37 0.00 100 1007.7
20260506104549 50 305 0.0 0.0 0.00 0.37 0.00 100 1008.0
20260506103053 50 305 0.0 0.0 0.00 0.37 0.00 100 1007.7
20260506101546 50 105 0.0 0.0 0.00 0.37 0.00 100 1008.1
20260506100044 50 100 0.0 0.0 0.00 0.37 0.00 100 1007.8
20260506094542 50 302 0.0 0.0 0.00 0.37 0.00 100 1008.0
20260506093042 50 314 0.0 0.0 0.02 0.37 0.37 100 1008.0
20260506091539 50 314 0.0 0.0 0.02 0.37 0.37 100 1008.3
20260506090047 50 313 0.0 0.0 0.02 0.37 0.37 100 1008.3
20260506084553 51 313 0.0 0.0 0.02 0.37 0.37 100 1008.5
20260506083037 51 272 0.0 0.0 0.00 0.35 0.35 100 1008.2
20260506081508 51 96 0.0 0.0 0.04 0.35 0.35 100 1008.3
20260506073004 51 280 0.0 0.0 0.04 0.35 0.35 100 1008.0
20260506071503 51 75 0.0 0.0 0.00 0.31 0.31 100 1008.5
20260506061603 52 319 0.0 0.0 0.05 0.31 0.31 100 1008.6
20260506050108 52 15 0.0 0.0 0.13 0.24 0.24 99 1008.2
20260506044555 52 112 0.0 0.0 0.16 0.24 0.24 97 1008.5
20260506043100 53 102 0.0 2.6 0.15 0.22 0.22 97 1008.5
20260506041550 54 87 0.0 0.0 0.07 0.14 0.14 97 1008.2
20260506040047 54 100 0.0 0.0 0.03 0.10 0.10 97 1007.8
20260506034548 54 94 0.0 6.1 0.01 0.08 0.08 100 1007.5
20260506033043 53 93 0.0 0.0 0.00 0.07 0.07 100 1006.7
20260506031547 53 91 0.0 0.0 0.00 0.07 0.07 100 1006.7
20260506030041 54 91 0.0 0.0 0.00 0.07 0.07 100 1006.6
20260506024544 54 91 0.0 0.0 0.00 0.07 0.07 100 1006.3
20260506023035 54 92 0.0 0.0 0.00 0.07 0.07 100 1006.7
20260506021533 54 109 0.0 0.0 0.00 0.07 0.07 100 1006.6
20260506020032 54 109 0.0 0.0 0.00 0.07 0.07 100 1006.3
20260506014532 54 273 0.0 0.0 0.00 0.07 0.07 100 1006.2
20260506013029 55 273 0.0 0.0 0.00 0.07 0.07 100 1006.2
20260506011534 56 270 0.0 0.0 0.00 0.07 0.07 100 1006.1
20260506010028 56 271 0.0 0.0 0.00 0.07 0.07 99 1006.2
20260506004527 56 271 0.0 0.0 0.00 0.07 0.07 99 1005.8
20260506003025 57 93 0.0 0.0 0.00 0.07 0.07 98 1005.7
20260506001524 57 120 0.0 0.0 0.00 0.07 0.07 98 1005.7
20260506000024 58 67 0.0 0.0 0.00 0.07 0.07 98 1005.7
20260505234524 58 271 0.0 0.0 0.00 0.07 0.07 97 1005.4
20260505233021 59 271 0.0 0.0 0.00 0.07 0.07 96 1005.2
20260505231523 59 271 0.0 0.0 0.00 0.07 0.07 95 1005.1
20260505230020 60 271 0.0 0.0 0.00 0.07 0.07 93 1005.1
20260505224520 61 258 0.0 0.0 0.00 0.07 0.07 92 1004.9
20260505223023 61 68 0.0 0.0 0.00 0.07 0.07 90 1005.3
20260505221517 61 19 0.0 0.0 0.00 0.07 0.07 91 1005.2
20260505220016 61 84 0.0 0.0 0.01 0.07 0.07 88 1004.9
20260505214523 62 116 0.0 0.0 0.01 0.07 0.07 88 1005.0
20260505213015 61 135 0.0 0.9 0.02 0.07 0.07 87 1004.9
20260505211615 61 108 0.0 1.7 0.06 0.07 0.07 87 1004.8
20260505210011 61 86 0.0 0.0 0.06 0.06 0.06 89 1004.5
20260505204511 60 116 0.0 0.0 0.06 0.06 0.06 89 1003.9
20260505203006 61 101 0.0 3.5 0.05 0.05 0.05 85 1004.2